| time (UTC) | temp C | wind direction | speed KPH | gust KPH | rain 1hr cm | rain 24hr cm | rain mn cm | humidity % | barometer mb |
| 20260507070457 | 6 | 263 | 0.0 | 0.0 | 0.00 | 0.00 | 0.00 | 96 | 1017.3 |
| 20260507065954 | 6 | 263 | 0.0 | 0.0 | 0.00 | 0.00 | 0.00 | 96 | 1017.6 |
| 20260507065451 | 6 | 263 | 0.0 | 0.0 | 0.00 | 0.00 | 0.00 | 96 | 1017.3 |
| 20260507064948 | 6 | 263 | 0.0 | 0.0 | 0.00 | 0.00 | 0.00 | 96 | 1017.4 |
| 20260507064446 | 6 | 263 | 0.0 | 0.0 | 0.00 | 0.00 | 0.00 | 96 | 1017.4 |
| 20260507063944 | 6 | 263 | 0.0 | 0.0 | 0.00 | 0.00 | 0.00 | 96 | 1017.6 |
| 20260507063440 | 6 | 263 | 0.0 | 0.0 | 0.00 | 0.00 | 0.00 | 96 | 1017.4 |
| 20260507062937 | 6 | 263 | 0.0 | 0.0 | 0.00 | 0.00 | 0.00 | 96 | 1017.6 |
| 20260507062435 | 6 | 263 | 0.0 | 0.0 | 0.00 | 0.00 | 0.00 | 96 | 1017.6 |
| 20260507061932 | 6 | 263 | 0.0 | 0.0 | 0.00 | 0.00 | 0.00 | 96 | 1017.6 |
| 20260507061430 | 6 | 263 | 0.0 | 0.0 | 0.00 | 0.00 | 0.00 | 96 | 1017.6 |
| 20260507060928 | 6 | 263 | 0.0 | 0.0 | 0.00 | 0.00 | 0.00 | 96 | 1017.4 |
| 20260507060424 | 6 | 263 | 0.0 | 0.0 | 0.00 | 0.00 | 0.00 | 96 | 1017.8 |
| 20260507055921 | 6 | 263 | 0.0 | 0.0 | 0.00 | 0.00 | 0.00 | 96 | 1017.6 |
| 20260507055417 | 6 | 263 | 0.0 | 0.0 | 0.00 | 0.00 | 0.00 | 96 | 1017.6 |
| 20260507054914 | 6 | 263 | 0.0 | 0.0 | 0.00 | 0.00 | 0.00 | 96 | 1017.7 |
| 20260507054410 | 7 | 263 | 0.0 | 0.0 | 0.00 | 0.00 | 0.00 | 95 | 1017.6 |
| 20260507053907 | 7 | 263 | 0.0 | 0.0 | 0.00 | 0.00 | 0.00 | 95 | 1017.6 |
| 20260507053405 | 7 | 263 | 0.0 | 0.0 | 0.00 | 0.00 | 0.00 | 95 | 1017.6 |
| 20260507052904 | 7 | 263 | 0.0 | 0.0 | 0.00 | 0.00 | 0.00 | 95 | 1017.5 |
| 20260507052400 | 7 | 263 | 0.0 | 0.0 | 0.00 | 0.00 | 0.00 | 95 | 1017.7 |
| 20260507051857 | 7 | 263 | 0.0 | 0.0 | 0.00 | 0.00 | 0.00 | 95 | 1017.4 |
| 20260507051355 | 7 | 263 | 0.0 | 0.0 | 0.00 | 0.00 | 0.00 | 95 | 1017.8 |
| 20260507050851 | 7 | 263 | 0.0 | 0.0 | 0.00 | 0.00 | 0.00 | 95 | 1017.6 |
| 20260507050348 | 7 | 263 | 0.0 | 0.0 | 0.00 | 0.00 | 0.00 | 95 | 1017.5 |
| 20260507045845 | 7 | 263 | 0.0 | 0.0 | 0.00 | 0.08 | 0.08 | 95 | 1017.5 |
| 20260507045341 | 7 | 263 | 0.0 | 0.0 | 0.00 | 0.08 | 0.08 | 95 | 1017.7 |
| 20260507044839 | 7 | 263 | 0.0 | 0.0 | 0.00 | 0.08 | 0.08 | 95 | 1017.6 |
| 20260507044335 | 7 | 263 | 0.0 | 0.0 | 0.00 | 0.08 | 0.08 | 94 | 1017.6 |
| 20260507043831 | 7 | 263 | 0.0 | 0.0 | 0.00 | 0.08 | 0.08 | 94 | 1017.7 |
| 20260507043328 | 7 | 263 | 0.0 | 0.0 | 0.00 | 0.08 | 0.08 | 94 | 1017.7 |
| 20260507042824 | 7 | 263 | 0.0 | 0.0 | 0.00 | 0.08 | 0.08 | 94 | 1017.5 |
| 20260507042320 | 7 | 263 | 0.0 | 0.0 | 0.00 | 0.08 | 0.08 | 94 | 1017.8 |
| 20260507041817 | 7 | 263 | 0.0 | 0.0 | 0.00 | 0.08 | 0.08 | 94 | 1017.6 |
| 20260507041313 | 7 | 263 | 0.0 | 0.0 | 0.00 | 0.08 | 0.08 | 93 | 1017.5 |
| 20260507040811 | 7 | 263 | 0.0 | 0.0 | 0.00 | 0.08 | 0.08 | 93 | 1017.5 |
| 20260507040307 | 7 | 263 | 0.0 | 0.0 | 0.00 | 0.08 | 0.08 | 93 | 1017.3 |
| 20260507035803 | 8 | 263 | 0.0 | 0.0 | 0.00 | 0.08 | 0.08 | 93 | 1017.5 |
| 20260507035258 | 7 | 263 | 0.0 | 0.0 | 0.00 | 0.08 | 0.08 | 92 | 1017.3 |
| 20260507034756 | 8 | 263 | 0.0 | 0.0 | 0.00 | 0.08 | 0.08 | 92 | 1017.3 |
| 20260507034253 | 8 | 263 | 0.0 | 1.6 | 0.00 | 0.08 | 0.08 | 92 | 1017.4 |
| 20260507033751 | 8 | 263 | 0.0 | 0.0 | 0.00 | 0.08 | 0.08 | 92 | 1017.1 |
| 20260507033248 | 8 | 263 | 0.0 | 0.0 | 0.00 | 0.08 | 0.08 | 91 | 1017.3 |
| 20260507032745 | 8 | 263 | 0.0 | 0.0 | 0.00 | 0.08 | 0.08 | 91 | 1017.3 |
| 20260507032241 | 8 | 263 | 0.0 | 0.0 | 0.00 | 0.08 | 0.08 | 90 | 1017.4 |
| 20260507031738 | 8 | 263 | 0.0 | 0.0 | 0.00 | 0.08 | 0.08 | 90 | 1017.1 |
| 20260507031235 | 8 | 263 | 0.0 | 0.0 | 0.00 | 0.08 | 0.08 | 90 | 1017.2 |
| 20260507030732 | 8 | 263 | 0.0 | 0.0 | 0.00 | 0.08 | 0.08 | 89 | 1017.2 |
| 20260507030229 | 8 | 263 | 0.0 | 0.0 | 0.00 | 0.08 | 0.08 | 88 | 1017.2 |
| 20260507025726 | 8 | 263 | 0.0 | 0.0 | 0.00 | 0.08 | 0.08 | 88 | 1017.2 |
| 20260507025223 | 8 | 263 | 0.0 | 0.0 | 0.00 | 0.08 | 0.08 | 87 | 1017.0 |
| 20260507024721 | 9 | 263 | 0.0 | 0.0 | 0.00 | 0.08 | 0.08 | 87 | 1017.2 |
| 20260507024218 | 9 | 263 | 0.0 | 0.0 | 0.00 | 0.08 | 0.08 | 86 | 1017.1 |
| 20260507023714 | 9 | 263 | 0.0 | 0.0 | 0.00 | 0.08 | 0.08 | 85 | 1017.1 |
| 20260507023211 | 9 | 263 | 0.0 | 0.0 | 0.00 | 0.08 | 0.08 | 85 | 1016.9 |
| 20260507022708 | 9 | 263 | 0.0 | 0.0 | 0.00 | 0.08 | 0.08 | 83 | 1016.9 |
| 20260507022204 | 10 | 263 | 0.0 | 1.6 | 0.00 | 0.08 | 0.08 | 83 | 1016.9 |
| 20260507021701 | 10 | 263 | 0.0 | 0.0 | 0.00 | 0.08 | 0.08 | 81 | 1016.9 |
| 20260507021155 | 10 | 263 | 0.0 | 0.0 | 0.00 | 0.08 | 0.08 | 81 | 1016.8 |
| 20260507020655 | 10 | 263 | 0.0 | 1.6 | 0.00 | 0.08 | 0.08 | 80 | 1016.6 |
| 20260507020150 | 10 | 263 | 0.0 | 0.0 | 0.00 | 0.08 | 0.08 | 79 | 1016.7 |
| 20260507015649 | 10 | 263 | 0.0 | 0.0 | 0.00 | 0.08 | 0.08 | 77 | 1016.5 |
| 20260507015145 | 10 | 263 | 0.0 | 0.0 | 0.00 | 0.08 | 0.08 | 75 | 1016.3 |
| 20260507014642 | 10 | 263 | 0.0 | 0.0 | 0.00 | 0.08 | 0.08 | 73 | 1016.5 |
| 20260507014138 | 10 | 263 | 0.0 | 0.0 | 0.00 | 0.08 | 0.08 | 72 | 1016.4 |
| 20260507013635 | 11 | 263 | 0.0 | 0.0 | 0.00 | 0.08 | 0.08 | 73 | 1016.3 |
| 20260507013132 | 11 | 263 | 0.0 | 1.6 | 0.00 | 0.08 | 0.08 | 73 | 1016.4 |
| 20260507012629 | 11 | 263 | 0.0 | 1.6 | 0.00 | 0.08 | 0.08 | 73 | 1016.3 |
| 20260507012125 | 11 | 263 | 0.0 | 1.6 | 0.00 | 0.08 | 0.08 | 71 | 1016.2 |
| 20260507011623 | 12 | 263 | 0.0 | 1.6 | 0.00 | 0.08 | 0.08 | 70 | 1016.1 |
| 20260507011119 | 12 | 251 | 0.0 | 0.0 | 0.00 | 0.08 | 0.08 | 68 | 1016.1 |
| 20260507010614 | 12 | 245 | 0.0 | 1.6 | 0.00 | 0.08 | 0.08 | 67 | 1015.8 |
| 20260507010110 | 12 | 220 | 0.0 | 1.6 | 0.00 | 0.08 | 0.08 | 65 | 1016.0 |
| 20260507005608 | 13 | 161 | 1.6 | 1.6 | 0.00 | 0.08 | 0.08 | 64 | 1016.0 |
| 20260507005104 | 13 | 161 | 0.0 | 1.6 | 0.00 | 0.08 | 0.08 | 63 | 1015.7 |
| 20260507004601 | 14 | 160 | 0.0 | 0.0 | 0.00 | 0.08 | 0.08 | 61 | 1015.9 |
| 20260507004058 | 15 | 159 | 0.0 | 0.0 | 0.00 | 0.08 | 0.08 | 56 | 1015.8 |
| 20260507003554 | 15 | 353 | 0.0 | 0.0 | 0.00 | 0.08 | 0.08 | 54 | 1015.9 |
| 20260507003049 | 15 | 353 | 0.0 | 1.6 | 0.00 | 0.08 | 0.08 | 52 | 1015.8 |
| 20260507002546 | 15 | 353 | 0.0 | 1.6 | 0.00 | 0.08 | 0.08 | 52 | 1015.8 |
| 20260507002042 | 15 | 353 | 0.0 | 1.6 | 0.00 | 0.08 | 0.08 | 52 | 1015.8 |
| 20260507001539 | 15 | 353 | 0.0 | 1.6 | 0.00 | 0.08 | 0.08 | 53 | 1015.7 |
| 20260507001036 | 15 | 351 | 0.0 | 1.6 | 0.00 | 0.08 | 0.08 | 52 | 1015.7 |
| 20260507000532 | 15 | 331 | 0.0 | 1.6 | 0.00 | 0.08 | 0.08 | 52 | 1015.6 |
| 20260507000028 | 15 | 358 | 0.0 | 1.6 | 0.00 | 0.08 | 0.08 | 50 | 1015.5 |
| 20260506235526 | 15 | 9 | 0.0 | 4.8 | 0.00 | 0.08 | 0.08 | 50 | 1015.4 |
| 20260506235021 | 15 | 24 | 0.0 | 3.2 | 0.00 | 0.08 | 0.08 | 50 | 1015.5 |
| 20260506234519 | 15 | 323 | 0.0 | 8.0 | 0.00 | 0.08 | 0.08 | 52 | 1015.3 |
| 20260506234016 | 15 | 308 | 0.0 | 1.6 | 0.00 | 0.08 | 0.08 | 50 | 1015.4 |
| 20260506233512 | 15 | 39 | 3.2 | 4.8 | 0.00 | 0.08 | 0.08 | 48 | 1015.3 |
| 20260506233009 | 16 | 28 | 3.2 | 4.8 | 0.00 | 0.08 | 0.08 | 50 | 1015.1 |
| 20260506232505 | 16 | 30 | 0.0 | 8.0 | 0.00 | 0.08 | 0.08 | 47 | 1015.2 |
| 20260506232001 | 17 | 29 | 0.0 | 1.6 | 0.00 | 0.08 | 0.08 | 48 | 1015.1 |
| 20260506231459 | 17 | 15 | 1.6 | 3.2 | 0.00 | 0.08 | 0.08 | 48 | 1015.1 |
| 20260506230956 | 17 | 25 | 1.6 | 8.0 | 0.00 | 0.08 | 0.08 | 46 | 1014.7 |
| 20260506230452 | 17 | 37 | 0.0 | 3.2 | 0.00 | 0.08 | 0.08 | 51 | 1015.0 |
| 20260506225949 | 16 | 9 | 1.6 | 9.7 | 0.00 | 0.08 | 0.08 | 47 | 1015.2 |
| 20260506225446 | 16 | 40 | 4.8 | 9.7 | 0.00 | 0.08 | 0.08 | 46 | 1015.1 |
| 20260506224943 | 17 | 19 | 4.8 | 9.7 | 0.00 | 0.08 | 0.08 | 46 | 1015.0 |
| 20260506224440 | 17 | 18 | 3.2 | 8.0 | 0.00 | 0.08 | 0.08 | 45 | 1014.9 |
| 20260506223936 | 17 | 17 | 1.6 | 4.8 | 0.00 | 0.08 | 0.08 | 47 | 1014.7 |
| 20260506223432 | 17 | 25 | 1.6 | 3.2 | 0.00 | 0.08 | 0.08 | 50 | 1014.6 |
| 20260506222930 | 17 | 25 | 0.0 | 1.6 | 0.00 | 0.08 | 0.08 | 48 | 1014.9 |
| 20260506222426 | 17 | 21 | 3.2 | 11.3 | 0.00 | 0.08 | 0.08 | 45 | 1014.8 |
| 20260506221923 | 17 | 23 | 0.0 | 8.0 | 0.00 | 0.08 | 0.08 | 45 | 1014.9 |
| 20260506221420 | 17 | 24 | 1.6 | 3.2 | 0.00 | 0.08 | 0.08 | 46 | 1014.8 |
| 20260506220918 | 17 | 2 | 3.2 | 4.8 | 0.00 | 0.08 | 0.08 | 48 | 1014.9 |
| 20260506220413 | 18 | 5 | 3.2 | 3.2 | 0.00 | 0.08 | 0.08 | 45 | 1015.0 |
| 20260506215910 | 17 | 50 | 0.0 | 3.2 | 0.00 | 0.08 | 0.08 | 49 | 1015.0 |
| 20260506215406 | 17 | 21 | 1.6 | 4.8 | 0.00 | 0.08 | 0.08 | 47 | 1015.1 |
| 20260506214902 | 16 | 75 | 0.0 | 1.6 | 0.00 | 0.08 | 0.08 | 52 | 1015.2 |
| 20260506214359 | 16 | 64 | 0.0 | 8.0 | 0.00 | 0.08 | 0.08 | 47 | 1015.3 |
| 20260506213857 | 16 | 20 | 4.8 | 8.0 | 0.00 | 0.08 | 0.08 | 45 | 1015.3 |
| 20260506213354 | 16 | 38 | 3.2 | 4.8 | 0.00 | 0.08 | 0.08 | 48 | 1015.3 |
| 20260506212851 | 16 | 354 | 3.2 | 3.2 | 0.00 | 0.08 | 0.08 | 50 | 1015.3 |
| 20260506212347 | 16 | 49 | 0.0 | 4.8 | 0.00 | 0.08 | 0.08 | 50 | 1015.1 |
| 20260506211842 | 16 | 35 | 9.7 | 11.3 | 0.00 | 0.08 | 0.08 | 47 | 1015.4 |
| 20260506211338 | 16 | 44 | 4.8 | 4.8 | 0.00 | 0.08 | 0.08 | 48 | 1015.3 |
| 20260506210836 | 16 | 100 | 0.0 | 3.2 | 0.00 | 0.08 | 0.08 | 51 | 1015.1 |
| 20260506210333 | 16 | 99 | 1.6 | 3.2 | 0.00 | 0.08 | 0.08 | 49 | 1015.2 |
| 20260506205830 | 17 | 144 | 0.0 | 3.2 | 0.00 | 0.08 | 0.08 | 50 | 1015.5 |
| 20260506205326 | 16 | 36 | 3.2 | 3.2 | 0.00 | 0.08 | 0.08 | 47 | 1015.3 |
| 20260506204822 | 17 | 347 | 1.6 | 4.8 | 0.00 | 0.08 | 0.08 | 49 | 1015.1 |
| 20260506204320 | 17 | 39 | 4.8 | 8.0 | 0.00 | 0.08 | 0.08 | 46 | 1015.3 |
| 20260506203818 | 17 | 334 | 1.6 | 3.2 | 0.00 | 0.08 | 0.08 | 48 | 1015.5 |
| 20260506203315 | 17 | 75 | 1.6 | 4.8 | 0.00 | 0.08 | 0.08 | 47 | 1015.6 |
| 20260506202811 | 17 | 152 | 3.2 | 8.0 | 0.00 | 0.08 | 0.08 | 48 | 1015.6 |
| 20260506202308 | 17 | 336 | 1.6 | 8.0 | 0.00 | 0.08 | 0.08 | 47 | 1015.6 |
| 20260506201805 | 17 | 297 | 0.0 | 3.2 | 0.00 | 0.08 | 0.08 | 47 | 1015.9 |
| 20260506201302 | 17 | 45 | 1.6 | 3.2 | 0.00 | 0.08 | 0.08 | 46 | 1015.7 |
| 20260506200759 | 17 | 45 | 1.6 | 12.9 | 0.00 | 0.08 | 0.08 | 44 | 1015.7 |
| 20260506200255 | 17 | 7 | 4.8 | 4.8 | 0.00 | 0.08 | 0.08 | 45 | 1015.8 |
| 20260506195751 | 17 | 16 | 1.6 | 3.2 | 0.00 | 0.08 | 0.08 | 45 | 1015.9 |
| 20260506195248 | 16 | 32 | 1.6 | 4.8 | 0.00 | 0.08 | 0.08 | 44 | 1015.9 |
| 20260506194746 | 17 | 46 | 3.2 | 4.8 | 0.00 | 0.08 | 0.08 | 48 | 1015.5 |
| 20260506194242 | 17 | 24 | 3.2 | 3.2 | 0.00 | 0.08 | 0.08 | 49 | 1015.6 |
| 20260506193740 | 17 | 11 | 3.2 | 8.0 | 0.00 | 0.08 | 0.08 | 47 | 1016.1 |
| 20260506193236 | 17 | 34 | 0.0 | 1.6 | 0.00 | 0.08 | 0.08 | 54 | 1015.9 |
| 20260506192733 | 17 | 37 | 0.0 | 1.6 | 0.00 | 0.08 | 0.08 | 49 | 1016.1 |
| 20260506192230 | 16 | 43 | 4.8 | 4.8 | 0.00 | 0.08 | 0.08 | 47 | 1016.4 |
| 20260506191726 | 16 | 104 | 3.2 | 4.8 | 0.00 | 0.08 | 0.08 | 48 | 1016.4 |
| 20260506191223 | 17 | 64 | 1.6 | 4.8 | 0.00 | 0.08 | 0.08 | 50 | 1016.4 |
| 20260506190720 | 17 | 24 | 4.8 | 8.0 | 0.00 | 0.08 | 0.08 | 48 | 1016.5 |
| 20260506190216 | 17 | 61 | 1.6 | 3.2 | 0.00 | 0.08 | 0.08 | 49 | 1016.5 |
| 20260506185714 | 16 | 61 | 0.0 | 1.6 | 0.00 | 0.08 | 0.08 | 50 | 1016.4 |
| 20260506185210 | 17 | 37 | 0.0 | 3.2 | 0.00 | 0.08 | 0.08 | 52 | 1016.4 |
| 20260506184708 | 16 | 18 | 0.0 | 3.2 | 0.00 | 0.08 | 0.08 | 52 | 1016.4 |
| 20260506184204 | 16 | 43 | 0.0 | 4.8 | 0.00 | 0.08 | 0.08 | 48 | 1016.5 |
| 20260506183701 | 16 | 28 | 1.6 | 4.8 | 0.00 | 0.08 | 0.08 | 49 | 1016.6 |
| 20260506183157 | 16 | 58 | 1.6 | 11.3 | 0.00 | 0.08 | 0.08 | 49 | 1016.7 |
| 20260506182655 | 16 | 41 | 1.6 | 8.0 | 0.00 | 0.08 | 0.08 | 49 | 1016.9 |
| 20260506182151 | 16 | 30 | 1.6 | 4.8 | 0.00 | 0.08 | 0.08 | 47 | 1016.8 |
| 20260506181644 | 16 | 54 | 3.2 | 4.8 | 0.00 | 0.08 | 0.08 | 49 | 1016.8 |
| 20260506181141 | 16 | 48 | 0.0 | 1.6 | 0.00 | 0.08 | 0.08 | 51 | 1016.9 |
| 20260506180637 | 16 | 19 | 1.6 | 3.2 | 0.00 | 0.08 | 0.08 | 51 | 1017.2 |
| 20260506180134 | 15 | 7 | 4.8 | 8.0 | 0.00 | 0.08 | 0.08 | 52 | 1017.0 |
| 20260506175630 | 16 | 17 | 3.2 | 4.8 | 0.00 | 0.08 | 0.08 | 48 | 1017.4 |
| 20260506175126 | 15 | 71 | 1.6 | 8.0 | 0.00 | 0.08 | 0.08 | 51 | 1017.4 |
| 20260506174625 | 16 | 64 | 1.6 | 3.2 | 0.00 | 0.08 | 0.08 | 51 | 1017.4 |
| 20260506174121 | 16 | 33 | 4.8 | 8.0 | 0.00 | 0.08 | 0.08 | 49 | 1017.4 |
| 20260506173619 | 16 | 62 | 0.0 | 1.6 | 0.00 | 0.08 | 0.08 | 52 | 1017.4 |
| 20260506173116 | 16 | 83 | 1.6 | 3.2 | 0.00 | 0.08 | 0.08 | 54 | 1017.5 |
| 20260506172613 | 15 | 69 | 1.6 | 11.3 | 0.00 | 0.08 | 0.08 | 50 | 1017.6 |
| 20260506172109 | 15 | 52 | 3.2 | 3.2 | 0.00 | 0.08 | 0.08 | 52 | 1017.6 |
| 20260506171607 | 15 | 40 | 0.0 | 3.2 | 0.00 | 0.08 | 0.08 | 55 | 1017.5 |
| 20260506171104 | 15 | 279 | 1.6 | 8.0 | 0.00 | 0.08 | 0.08 | 54 | 1017.3 |
| 20260506170601 | 15 | 77 | 1.6 | 4.8 | 0.00 | 0.08 | 0.08 | 55 | 1017.5 |
| 20260506170059 | 15 | 56 | 1.6 | 3.2 | 0.00 | 0.08 | 0.08 | 54 | 1017.7 |
| 20260506165557 | 14 | 51 | 1.6 | 4.8 | 0.00 | 0.08 | 0.08 | 55 | 1017.6 |
| 20260506165053 | 14 | 14 | 0.0 | 3.2 | 0.00 | 0.08 | 0.08 | 56 | 1017.4 |
| 20260506164551 | 13 | 37 | 0.0 | 4.8 | 0.00 | 0.08 | 0.08 | 59 | 1017.7 |
| 20260506164048 | 13 | 44 | 1.6 | 3.2 | 0.00 | 0.08 | 0.08 | 58 | 1017.7 |
| 20260506163543 | 13 | 38 | 3.2 | 4.8 | 0.00 | 0.08 | 0.08 | 58 | 1017.4 |
| 20260506163039 | 13 | 20 | 3.2 | 9.7 | 0.00 | 0.08 | 0.08 | 55 | 1017.3 |
| 20260506162536 | 13 | 61 | 0.0 | 4.8 | 0.00 | 0.08 | 0.08 | 57 | 1017.0 |
| 20260506162033 | 13 | 138 | 0.0 | 3.2 | 0.00 | 0.08 | 0.08 | 64 | 1017.1 |
| 20260506161531 | 13 | 111 | 0.0 | 1.6 | 0.00 | 0.08 | 0.08 | 62 | 1016.8 |
| 20260506161027 | 13 | 81 | 3.2 | 4.8 | 0.00 | 0.08 | 0.08 | 61 | 1016.5 |
| 20260506160525 | 13 | 53 | 1.6 | 3.2 | 0.00 | 0.08 | 0.08 | 64 | 1016.2 |
| 20260506160022 | 13 | 309 | 0.0 | 1.6 | 0.00 | 0.08 | 0.08 | 66 | 1016.4 |
| 20260506155521 | 12 | 334 | 1.6 | 3.2 | 0.00 | 0.08 | 0.08 | 63 | 1016.4 |
| 20260506153657 | 12 | 295 | 0.0 | 11.3 | 0.00 | 0.08 | 0.08 | 68 | 1016.4 |
| 20260506153155 | 12 | 355 | 3.2 | 4.8 | 0.00 | 0.08 | 0.08 | 69 | 1016.4 |
| 20260506152652 | 11 | 37 | 4.8 | 4.8 | 0.00 | 0.08 | 0.08 | 69 | 1016.4 |
| 20260506152149 | 11 | 50 | 0.0 | 3.2 | 0.00 | 0.08 | 0.08 | 71 | 1016.5 |
| 20260506151648 | 11 | 342 | 1.6 | 3.2 | 0.00 | 0.08 | 0.08 | 73 | 1016.3 |
| 20260506151144 | 11 | 60 | 0.0 | 9.7 | 0.00 | 0.08 | 0.08 | 70 | 1016.6 |
| 20260506150641 | 11 | 12 | 4.8 | 4.8 | 0.00 | 0.08 | 0.08 | 72 | 1016.5 |
| 20260506150138 | 11 | 129 | 1.6 | 1.6 | 0.00 | 0.08 | 0.08 | 74 | 1016.5 |
| 20260506145635 | 11 | 126 | 0.0 | 1.6 | 0.00 | 0.08 | 0.08 | 77 | 1016.7 |
| 20260506145131 | 11 | 26 | 1.6 | 3.2 | 0.00 | 0.08 | 0.08 | 76 | 1016.4 |
| 20260506144629 | 11 | 83 | 0.0 | 1.6 | 0.00 | 0.08 | 0.08 | 78 | 1016.1 |
| 20260506144125 | 10 | 111 | 1.6 | 1.6 | 0.00 | 0.08 | 0.08 | 79 | 1015.9 |
| 20260506143624 | 10 | 64 | 1.6 | 3.2 | 0.00 | 0.08 | 0.08 | 79 | 1016.0 |
| 20260506143121 | 10 | 16 | 4.8 | 4.8 | 0.00 | 0.08 | 0.08 | 79 | 1016.0 |
| 20260506142620 | 10 | 351 | 3.2 | 8.0 | 0.00 | 0.08 | 0.08 | 81 | 1016.1 |
| 20260506142117 | 10 | 63 | 0.0 | 1.6 | 0.00 | 0.08 | 0.08 | 83 | 1015.9 |
| 20260506141614 | 9 | 17 | 3.2 | 3.2 | 0.00 | 0.08 | 0.08 | 83 | 1016.1 |
| 20260506141113 | 9 | 88 | 0.0 | 1.6 | 0.00 | 0.08 | 0.08 | 85 | 1016.1 |
| 20260506140610 | 9 | 160 | 0.0 | 1.6 | 0.00 | 0.08 | 0.08 | 85 | 1016.4 |
| 20260506140107 | 9 | 156 | 0.0 | 1.6 | 0.00 | 0.08 | 0.08 | 85 | 1016.4 |
| 20260506135604 | 9 | 160 | 0.0 | 1.6 | 0.00 | 0.08 | 0.08 | 86 | 1016.5 |
| 20260506135100 | 8 | 160 | 0.0 | 1.6 | 0.00 | 0.08 | 0.08 | 86 | 1016.6 |
| 20260506134557 | 8 | 88 | 3.2 | 3.2 | 0.00 | 0.08 | 0.08 | 86 | 1016.7 |
| 20260506134052 | 8 | 141 | 1.6 | 1.6 | 0.00 | 0.08 | 0.08 | 86 | 1016.5 |
| 20260506133550 | 8 | 173 | 1.6 | 3.2 | 0.00 | 0.08 | 0.08 | 87 | 1016.5 |
| 20260506133047 | 8 | 159 | 3.2 | 3.2 | 0.00 | 0.08 | 0.08 | 87 | 1016.2 |
| 20260506132544 | 8 | 90 | 0.0 | 1.6 | 0.00 | 0.08 | 0.08 | 88 | 1016.0 |
| 20260506132041 | 8 | 89 | 0.0 | 1.6 | 0.00 | 0.08 | 0.08 | 88 | 1016.2 |
| 20260506131538 | 8 | 176 | 0.0 | 1.6 | 0.00 | 0.08 | 0.08 | 89 | 1016.1 |
| 20260506131034 | 8 | 119 | 1.6 | 3.2 | 0.00 | 0.08 | 0.08 | 90 | 1016.0 |
| 20260506130532 | 7 | 157 | 0.0 | 4.8 | 0.00 | 0.08 | 0.08 | 90 | 1016.0 |
| 20260506130029 | 8 | 142 | 0.0 | 1.6 | 0.00 | 0.08 | 0.08 | 91 | 1016.0 |
| 20260506125527 | 7 | 109 | 1.6 | 1.6 | 0.00 | 0.08 | 0.08 | 92 | 1016.0 |
| 20260506125025 | 8 | 163 | 1.6 | 1.6 | 0.00 | 0.08 | 0.08 | 92 | 1015.9 |
| 20260506124522 | 8 | 163 | 0.0 | 0.0 | 0.00 | 0.08 | 0.08 | 93 | 1015.8 |
| 20260506124020 | 7 | 163 | 0.0 | 1.6 | 0.00 | 0.08 | 0.08 | 93 | 1016.1 |
| 20260506123518 | 8 | 227 | 0.0 | 0.0 | 0.00 | 0.08 | 0.08 | 94 | 1015.9 |
| 20260506123016 | 7 | 216 | 0.0 | 0.0 | 0.00 | 0.08 | 0.08 | 94 | 1015.9 |
| 20260506122512 | 8 | 259 | 0.0 | 1.6 | 0.00 | 0.08 | 0.08 | 94 | 1015.9 |
| 20260506122010 | 7 | 317 | 1.6 | 1.6 | 0.00 | 0.08 | 0.08 | 95 | 1015.9 |
| 20260506121507 | 7 | 14 | 1.6 | 4.8 | 0.00 | 0.08 | 0.08 | 95 | 1016.0 |
| 20260506121004 | 7 | 349 | 0.0 | 1.6 | 0.00 | 0.08 | 0.08 | 95 | 1015.9 |
| 20260506120502 | 7 | 16 | 1.6 | 1.6 | 0.00 | 0.08 | 0.08 | 95 | 1016.2 |
| 20260506115958 | 7 | 297 | 0.0 | 1.6 | 0.00 | 0.08 | 0.08 | 96 | 1016.0 |
| 20260506115456 | 7 | 291 | 0.0 | 3.2 | 0.00 | 0.08 | 0.08 | 96 | 1016.3 |
| 20260506114954 | 7 | 292 | 0.0 | 1.6 | 0.00 | 0.08 | 0.08 | 96 | 1015.9 |
| 20260506114452 | 7 | 296 | 0.0 | 1.6 | 0.00 | 0.08 | 0.08 | 96 | 1016.0 |
| 20260506113950 | 7 | 285 | 0.0 | 0.0 | 0.00 | 0.08 | 0.08 | 96 | 1015.9 |
| 20260506113448 | 7 | 285 | 0.0 | 1.6 | 0.00 | 0.08 | 0.08 | 96 | 1015.9 |
| 20260506112944 | 7 | 288 | 0.0 | 1.6 | 0.00 | 0.08 | 0.08 | 96 | 1015.8 |
| 20260506112442 | 7 | 294 | 0.0 | 0.0 | 0.00 | 0.08 | 0.08 | 96 | 1015.5 |
| 20260506111939 | 7 | 313 | 0.0 | 1.6 | 0.00 | 0.08 | 0.08 | 96 | 1015.4 |
| 20260506111437 | 7 | 0 | 1.6 | 3.2 | 0.00 | 0.08 | 0.08 | 96 | 1015.6 |
| 20260506110933 | 7 | 344 | 1.6 | 1.6 | 0.00 | 0.08 | 0.08 | 96 | 1015.4 |
| 20260506110432 | 7 | 344 | 0.0 | 3.2 | 0.00 | 0.08 | 0.08 | 96 | 1015.8 |
| 20260506105927 | 7 | 309 | 0.0 | 1.6 | 0.00 | 0.08 | 0.08 | 96 | 1015.5 |
| 20260506105424 | 7 | 295 | 0.0 | 0.0 | 0.00 | 0.08 | 0.08 | 96 | 1015.5 |
| 20260506104921 | 7 | 298 | 0.0 | 1.6 | 0.00 | 0.08 | 0.08 | 96 | 1015.2 |
| 20260506104419 | 7 | 344 | 3.2 | 3.2 | 0.00 | 0.08 | 0.08 | 96 | 1015.1 |
| 20260506103917 | 7 | 283 | 0.0 | 3.2 | 0.00 | 0.08 | 0.08 | 96 | 1015.3 |
| 20260506103414 | 7 | 304 | 0.0 | 3.2 | 0.00 | 0.08 | 0.08 | 96 | 1014.9 |
| 20260506102911 | 7 | 293 | 0.0 | 1.6 | 0.00 | 0.08 | 0.08 | 96 | 1014.9 |
| 20260506102409 | 7 | 300 | 0.0 | 1.6 | 0.00 | 0.08 | 0.08 | 95 | 1014.6 |
| 20260506101906 | 7 | 295 | 0.0 | 1.6 | 0.00 | 0.08 | 0.08 | 95 | 1014.5 |
| 20260506101402 | 7 | 327 | 1.6 | 1.6 | 0.00 | 0.08 | 0.08 | 95 | 1014.9 |
| 20260506100900 | 7 | 330 | 0.0 | 1.6 | 0.00 | 0.08 | 0.08 | 95 | 1014.4 |
| 20260506100358 | 7 | 288 | 0.0 | 1.6 | 0.00 | 0.08 | 0.08 | 95 | 1014.7 |
| 20260506095856 | 7 | 298 | 1.6 | 4.8 | 0.00 | 0.08 | 0.08 | 95 | 1014.4 |
| 20260506095354 | 7 | 308 | 0.0 | 1.6 | 0.00 | 0.08 | 0.08 | 95 | 1014.1 |
| 20260506094850 | 7 | 331 | 1.6 | 1.6 | 0.00 | 0.08 | 0.08 | 95 | 1014.1 |
| 20260506094349 | 7 | 304 | 0.0 | 1.6 | 0.00 | 0.08 | 0.08 | 95 | 1013.9 |
| 20260506093846 | 7 | 308 | 0.0 | 3.2 | 0.00 | 0.08 | 0.08 | 95 | 1014.1 |
| 20260506093344 | 7 | 291 | 0.0 | 1.6 | 0.00 | 0.08 | 0.08 | 95 | 1013.8 |
| 20260506092841 | 7 | 332 | 0.0 | 1.6 | 0.00 | 0.08 | 0.08 | 94 | 1014.0 |
| 20260506092339 | 7 | 330 | 0.0 | 1.6 | 0.00 | 0.08 | 0.08 | 94 | 1013.7 |
| 20260506091836 | 7 | 276 | 1.6 | 1.6 | 0.00 | 0.08 | 0.08 | 94 | 1013.7 |
| 20260506091333 | 7 | 288 | 0.0 | 1.6 | 0.00 | 0.08 | 0.08 | 94 | 1013.8 |
| 20260506090831 | 7 | 284 | 0.0 | 0.0 | 0.00 | 0.08 | 0.08 | 94 | 1013.8 |
| 20260506090328 | 7 | 282 | 0.0 | 1.6 | 0.00 | 0.08 | 0.08 | 94 | 1013.7 |
| 20260506085824 | 7 | 283 | 0.0 | 1.6 | 0.00 | 0.08 | 0.08 | 93 | 1013.9 |
| 20260506085321 | 7 | 321 | 0.0 | 1.6 | 0.00 | 0.08 | 0.08 | 93 | 1013.6 |
| 20260506084818 | 7 | 286 | 1.6 | 3.2 | 0.00 | 0.08 | 0.08 | 93 | 1013.2 |
| 20260506084314 | 7 | 308 | 0.0 | 1.6 | 0.00 | 0.08 | 0.08 | 92 | 1012.8 |
| 20260506083811 | 7 | 11 | 0.0 | 3.2 | 0.13 | 0.08 | 0.08 | 92 | 1012.8 |
| 20260506083308 | 7 | 300 | 1.6 | 1.6 | 0.30 | 0.08 | 0.08 | 91 | 1012.5 |
| 20260506082806 | 8 | 321 | 1.6 | 3.2 | 0.18 | 0.03 | 0.03 | 91 | 1012.4 |
| 20260506082304 | 8 | 3 | 1.6 | 3.2 | 0.00 | 0.00 | 0.00 | 91 | 1012.8 |
| 20260506081759 | 8 | 327 | 1.6 | 1.6 | 0.00 | 0.00 | 0.00 | 91 | 1012.5 |
| 20260506081256 | 8 | 331 | 0.0 | 1.6 | 0.00 | 0.00 | 0.00 | 91 | 1013.0 |
| 20260506080754 | 8 | 308 | 0.0 | 0.0 | 0.00 | 0.00 | 0.00 | 91 | 1012.4 |
| 20260506080250 | 8 | 322 | 1.6 | 1.6 | 0.00 | 0.00 | 0.00 | 91 | 1012.2 |
| 20260506073234 | 7 | 300 | 0.0 | 3.2 | 0.00 | 0.00 | 0.00 | 90 | 1012.5 |
| 20260506072731 | 8 | 297 | 1.6 | 1.6 | 0.00 | 0.00 | 0.00 | 90 | 1012.0 |
| 20260506072229 | 8 | 332 | 0.0 | 1.6 | 0.00 | 0.00 | 0.00 | 90 | 1012.2 |
| 20260506071726 | 8 | 43 | 1.6 | 1.6 | 0.00 | 0.00 | 0.00 | 90 | 1011.7 |
| 20260506071224 | 7 | 340 | 3.2 | 3.2 | 0.00 | 0.00 | 0.00 | 90 | 1012.1 |
| 20260506070720 | 7 | 28 | 3.2 | 4.8 | 0.00 | 0.00 | 0.00 | 90 | 1012.1 |